,,Stat6,,Stat2,,Stat8,,Stat9,,Stat10,,Wind1,,Wind1,
time,status,PA1M_AVG,status,PR1M_SUM,status,RH1M_AVG,status,SR1M_AVG,status,TA1M_AVG,status,W1dAve1m,status,W1sAve1m,
2009-02-18, 00:00:00,VALID,917.486,VALID,0,VALID,100,VALID,-0.0169808,VALID,20.742,VALID,64,VALID,0,
2009-02-18, 00:01:00,VALID,917.48,VALID,0,VALID,100,VALID,-0.0339617,VALID,20.7285,VALID,57,VALID,0,
2009-02-18, 00:02:00,VALID,917.446,VALID,0,VALID,100,VALID,0,VALID,20.7161,VALID,35,VALID,0.0723958,
2009-02-18, 00:03:00,VALID,917.446,VALID,0,VALID,100,VALID,-0.0169808,VALID,20.7131,VALID,30,VALID,0,
2009-02-18, 00:04:00,VALID,917.415,VALID,0,VALID,100,VALID,-0.0169808,VALID,20.7066,VALID,35,VALID,0,
2009-02-18, 00:05:00,VALID,917.409,VALID,0,VALID,100,VALID,-0.0339617,VALID,20.6901,VALID,36,VALID,0,
2009-02-18, 00:06:00,VALID,917.414,VALID,0,VALID,100,VALID,-0.0169808,VALID,20.6709,VALID,41,VALID,0,
2009-02-18, 00:07:00,VALID,917.407,VALID,0,VALID,100,VALID,-0.0169808,VALID,20.6547,VALID,37,VALID,0,
2009-02-18, 00:08:00,VALID,917.405,VALID,0,VALID,100,VALID,0,VALID,20.6447,VALID,37,VALID,0,
2009-02-18, 00:09:00,VALID,917.391,VALID,0,VALID,100,VALID,-0.0339617,VALID,20.6125,VALID,38,VALID,0,
2009-02-18, 00:10:00,VALID,917.381,VALID,0,VALID,100,VALID,-0.0339617,VALID,20.593,VALID,43,VALID,0,
2009-02-18, 00:11:00,VALID,917.367,VALID,0,VALID,100,VALID,-0.0339617,VALID,20.58,VALID,43,VALID,0.0703125,
2009-02-18, 00:12:00,VALID,917.352,VALID,0,VALID,100,VALID,-0.0169808,VALID,20.57,VALID,46,VALID,0.21875,
2009-02-18, 00:13:00,VALID,917.32,VALID,0,VALID,100,VALID,-0.0169808,VALID,20.5633,VALID,55,VALID,0.943979,
2009-02-18, 00:14:00,VALID,917.31,VALID,0,VALID,100,VALID,-0.0339617,VALID,20.593,VALID,51,VALID,0.326791,
2009-02-18, 00:15:00,VALID,917.287,VALID,0,VALID,100,VALID,-0.0679233,VALID,20.59,VALID,48,VALID,0,
2009-02-18, 00:16:00,VALID,917.276,VALID,0,VALID,100,VALID,-0.0339617,VALID,20.58,VALID,57,VALID,0,
2009-02-18, 00:17:00,VALID,917.269,VALID,0,VALID,100,VALID,0,VALID,20.5732,VALID,38,VALID,0,
2009-02-18, 00:18:00,VALID,917.248,VALID,0,VALID,100,VALID,0,VALID,20.5573,VALID,38,VALID,0,
2009-02-18, 00:19:00,VALID,917.226,VALID,0,VALID,100,VALID,-0.0169808,VALID,20.5278,VALID,42,VALID,0,
2009-02-18, 00:20:00,VALID,917.21,VALID,0,VALID,100,VALID,-0.0169808,VALID,20.5146,VALID,44,VALID,0,
2009-02-18, 00:21:00,VALID,917.182,VALID,0,VALID,100,VALID,-0.0169808,VALID,20.4989,VALID,44,VALID,0,
2009-02-18, 00:22:00,VALID,917.142,VALID,0,VALID,100,VALID,-0.101885,VALID,20.4861,VALID,50,VALID,0,
2009-02-18, 00:23:00,VALID,917.134,VALID,0,VALID,100,VALID,0.0169808,VALID,20.4689,VALID,55,VALID,0,
2009-02-18, 00:24:00,VALID,917.104,VALID,0,VALID,100,VALID,0.101885,VALID,20.4479,VALID,58,VALID,0,
2009-02-18, 00:25:00,VALID,917.088,VALID,0,VALID,100,VALID,0.0849042,VALID,20.4321,VALID,65,VALID,0,
2009-02-18, 00:26:00,VALID,917.078,VALID,0,VALID,100,VALID,0.0679233,VALID,20.4167,VALID,65,VALID,0,
2009-02-18, 00:27:00,VALID,917.059,VALID,0,VALID,100,VALID,0.0679233,VALID,20.4097,VALID,63,VALID,0,
2009-02-18, 00:28:00,VALID,917.039,VALID,0,VALID,100,VALID,0.0509425,VALID,20.3932,VALID,62,VALID,0,
2009-02-18, 00:29:00,VALID,917.024,VALID,0,VALID,100,VALID,0.0679233,VALID,20.4002,VALID,54,VALID,0,
2009-02-18, 00:30:00,VALID,917.01,VALID,0,VALID,100,VALID,0.0339617,VALID,20.3705,VALID,46,VALID,0,
2009-02-18, 00:31:00,VALID,916.994,VALID,0,VALID,100,VALID,0.0509425,VALID,20.3543,VALID,45,VALID,0,
2009-02-18, 00:32:00,VALID,916.977,VALID,0,VALID,100,VALID,0.0679233,VALID,20.3607,VALID,41,VALID,0,
2009-02-18, 00:33:00,VALID,916.945,VALID,0,VALID,100,VALID,0.0509425,VALID,20.3732,VALID,46,VALID,0,
2009-02-18, 00:34:00,VALID,916.919,VALID,0,VALID,100,VALID,0.101885,VALID,20.3892,VALID,50,VALID,0,
2009-02-18, 00:35:00,VALID,916.883,VALID,0,VALID,100,VALID,0.0679233,VALID,20.4092,VALID,58,VALID,0,
2009-02-18, 00:36:00,VALID,916.859,VALID,0,VALID,100,VALID,0.101885,VALID,20.4186,VALID,70,VALID,0,
2009-02-18, 00:37:00,VALID,916.839,VALID,0,VALID,100,VALID,0.135847,VALID,20.4279,VALID,69,VALID,0,
2009-02-18, 00:38:00,VALID,916.803,VALID,0,VALID,99.954,VALID,0,VALID,20.4362,VALID,66,VALID,0,
2009-02-18, 00:39:00,VALID,916.773,VALID,0,VALID,99.8197,VALID,0,VALID,20.4197,VALID,66,VALID,0,
2009-02-18, 00:40:00,VALID,916.739,VALID,0,VALID,99.5704,VALID,-0.0169808,VALID,20.4075,VALID,66,VALID,0,
2009-02-18, 00:41:00,VALID,916.716,VALID,0,VALID,99.4128,VALID,-0.0169808,VALID,20.378,VALID,66,VALID,0,
2009-02-18, 00:42:00,VALID,916.691,VALID,0,VALID,99.3047,VALID,-0.0339617,VALID,20.3528,VALID,54,VALID,0,
2009-02-18, 00:43:00,VALID,916.669,VALID,0,VALID,99.1559,VALID,-0.0169808,VALID,20.3433,VALID,46,VALID,0,
2009-02-18, 00:44:00,VALID,916.665,VALID,0,VALID,99.0249,VALID,-0.0509425,VALID,20.3398,VALID,46,VALID,0,
2009-02-18, 00:45:00,VALID,916.667,VALID,0,VALID,98.9436,VALID,-0.0339617,VALID,20.3171,VALID,46,VALID,0,
2009-02-18, 00:46:00,VALID,916.677,VALID,0,VALID,98.9868,VALID,-0.0509425,VALID,20.2944,VALID,46,VALID,0,
2009-02-18, 00:47:00,VALID,916.686,VALID,0,VALID,99.1305,VALID,-0.0509425,VALID,20.2552,VALID,46,VALID,0,
2009-02-18, 00:48:00,VALID,916.667,VALID,0,VALID,99.1483,VALID,-0.0509425,VALID,20.2227,VALID,44,VALID,0.170201,
2009-02-18, 00:49:00,VALID,916.642,VALID,0,VALID,99.0071,VALID,-0.0339617,VALID,20.2233,VALID,44,VALID,0,
2009-02-18, 00:50:00,VALID,916.603,VALID,0,VALID,98.9181,VALID,-0.0509425,VALID,20.2125,VALID,44,VALID,0,
2009-02-18, 00:51:00,VALID,916.573,VALID,0,VALID,98.8329,VALID,-0.0169808,VALID,20.2427,VALID,44,VALID,0,
2009-02-18, 00:52:00,VALID,916.539,VALID,0,VALID,98.7248,VALID,-0.0169808,VALID,20.2612,VALID,44,VALID,0,
2009-02-18, 00:53:00,VALID,916.519,VALID,0,VALID,98.6358,VALID,0,VALID,20.2769,VALID,44,VALID,0,
2009-02-18, 00:54:00,VALID,916.523,VALID,0,VALID,98.515,VALID,-0.0339617,VALID,20.2674,VALID,44,VALID,0,
2009-02-18, 00:55:00,VALID,916.512,VALID,0,VALID,98.412,VALID,-0.0339617,VALID,20.2644,VALID,44,VALID,0,
2009-02-18, 00:56:00,VALID,916.5,VALID,0,VALID,98.1437,VALID,-0.0509425,VALID,20.2422,VALID,44,VALID,0,
2009-02-18, 00:57:00,VALID,916.505,VALID,0,VALID,97.8093,VALID,-0.0509425,VALID,20.1384,VALID,44,VALID,0,
2009-02-18, 00:58:00,VALID,916.51,VALID,0,VALID,97.864,VALID,-0.0509425,VALID,20.0567,VALID,44,VALID,0,
2009-02-18, 00:59:00,VALID,916.485,VALID,0,VALID,97.9517,VALID,-0.0509425,VALID,19.9926,VALID,60,VALID,0,
2009-02-18, 01:00:00,VALID,916.452,VALID,0,VALID,98.262,VALID,-0.0509425,VALID,19.9474,VALID,129,VALID,0.326451,
2009-02-18, 01:01:00,VALID,916.426,VALID,0,VALID,98.4603,VALID,-0.0679233,VALID,19.9115,VALID,163,VALID,0.0232515,
2009-02-18, 01:02:00,VALID,916.398,VALID,0,VALID,98.6193,VALID,-0.0679233,VALID,19.8588,VALID,162,VALID,0,
2009-02-18, 01:03:00,VALID,916.36,VALID,0,VALID,98.8609,VALID,-0.0339617,VALID,19.8361,VALID,162,VALID,0,
2009-02-18, 01:04:00,VALID,916.319,VALID,0,VALID,99.2424,VALID,-0.0339617,VALID,19.8328,VALID,162,VALID,0,
2009-02-18, 01:05:00,VALID,916.296,VALID,0,VALID,99.7497,VALID,-0.0509425,VALID,19.8526,VALID,160,VALID,0,
2009-02-18, 01:06:00,VALID,916.294,VALID,0,VALID,99.9537,VALID,-0.0679233,VALID,19.8463,VALID,152,VALID,0,
2009-02-18, 01:07:00,VALID,916.272,VALID,0,VALID,100,VALID,-0.0679233,VALID,19.8271,VALID,142,VALID,0,
2009-02-18, 01:08:00,VALID,916.27,VALID,0,VALID,100,VALID,-0.0169808,VALID,19.8039,VALID,141,VALID,0,
2009-02-18, 01:09:00,VALID,916.253,VALID,0,VALID,100,VALID,-0.0339617,VALID,19.8199,VALID,144,VALID,0,
2009-02-18, 01:10:00,VALID,916.247,VALID,0,VALID,100,VALID,-0.0679233,VALID,19.8231,VALID,146,VALID,0,
2009-02-18, 01:11:00,VALID,916.24,VALID,0,VALID,100,VALID,-0.0509425,VALID,19.8493,VALID,144,VALID,0,
2009-02-18, 01:12:00,VALID,916.245,VALID,0,VALID,100,VALID,-0.0679233,VALID,19.875,VALID,132,VALID,0.00104167,
2009-02-18, 01:13:00,VALID,916.25,VALID,0,VALID,100,VALID,-0.0339617,VALID,19.8945,VALID,130,VALID,0,
2009-02-18, 01:14:00,VALID,916.261,VALID,0,VALID,100,VALID,0,VALID,19.8977,VALID,122,VALID,0,
2009-02-18, 01:15:00,VALID,916.252,VALID,0,VALID,100,VALID,0,VALID,19.8942,VALID,122,VALID,0,
2009-02-18, 01:16:00,VALID,916.249,VALID,0,VALID,100,VALID,-0.0509425,VALID,19.881,VALID,126,VALID,0.0515253,
2009-02-18, 01:17:00,VALID,916.244,VALID,0,VALID,100,VALID,-0.0679233,VALID,19.8723,VALID,127,VALID,0,
2009-02-18, 01:18:00,VALID,916.215,VALID,0,VALID,100,VALID,-0.0339617,VALID,19.8655,VALID,131,VALID,0.00120192,
2009-02-18, 01:19:00,VALID,916.208,VALID,0,VALID,100,VALID,-0.0509425,VALID,19.8555,VALID,142,VALID,0.0416667,
2009-02-18, 01:20:00,VALID,916.202,VALID,0,VALID,100,VALID,-0.0509425,VALID,19.8428,VALID,138,VALID,0.0928819,
2009-02-18, 01:21:00,VALID,916.193,VALID,0,VALID,100,VALID,-0.0679233,VALID,19.8526,VALID,142,VALID,0,
2009-02-18, 01:22:00,VALID,916.196,VALID,0,VALID,100,VALID,-0.0849042,VALID,19.8496,VALID,143,VALID,0,
2009-02-18, 01:23:00,VALID,916.203,VALID,0,VALID,100,VALID,-0.0509425,VALID,19.8623,VALID,132,VALID,0.0012718,
2009-02-18, 01:24:00,VALID,916.213,VALID,0,VALID,100,VALID,-0.0509425,VALID,19.8463,VALID,135,VALID,0.211868,
2009-02-18, 01:25:00,VALID,916.216,VALID,0,VALID,100,VALID,-0.0849042,VALID,19.8401,VALID,129,VALID,0.279251,
2009-02-18, 01:26:00,VALID,916.213,VALID,0,VALID,100,VALID,-0.0679233,VALID,19.8531,VALID,140,VALID,0.654948,
2009-02-18, 01:27:00,VALID,916.196,VALID,0,VALID,100,VALID,-0.0509425,VALID,19.8593,VALID,141,VALID,0.647166,
2009-02-18, 01:28:00,VALID,916.185,VALID,0,VALID,100,VALID,-0.101885,VALID,19.8793,VALID,154,VALID,0.497638,
2009-02-18, 01:29:00,VALID,916.159,VALID,0,VALID,100,VALID,-0.0509425,VALID,19.9017,VALID,143,VALID,0.757999,
2009-02-18, 01:30:00,VALID,916.136,VALID,0,VALID,100,VALID,-0.0339617,VALID,19.8885,VALID,142,VALID,0.33316,
2009-02-18, 01:31:00,VALID,916.133,VALID,0,VALID,100,VALID,-0.0509425,VALID,19.8955,VALID,139,VALID,0,
2009-02-18, 01:32:00,VALID,916.098,VALID,0,VALID,100,VALID,-0.0509425,VALID,19.885,VALID,138,VALID,0,
2009-02-18, 01:33:00,VALID,916.089,VALID,0,VALID,100,VALID,-0.0339617,VALID,19.8725,VALID,138,VALID,0,
2009-02-18, 01:34:00,VALID,916.072,VALID,0,VALID,100,VALID,-0.0509425,VALID,19.8553,VALID,138,VALID,0,
2009-02-18, 01:35:00,VALID,916.051,VALID,0,VALID,100,VALID,-0.0169808,VALID,19.8521,VALID,139,VALID,0,
2009-02-18, 01:36:00,VALID,916.03,VALID,0,VALID,100,VALID,-0.0169808,VALID,19.8558,VALID,139,VALID,0,
2009-02-18, 01:37:00,VALID,916.004,VALID,0,VALID,100,VALID,-0.0169808,VALID,19.8585,VALID,139,VALID,0,
2009-02-18, 01:38:00,VALID,915.998,VALID,0,VALID,100,VALID,0.0509425,VALID,19.8745,VALID,139,VALID,0,
2009-02-18, 01:39:00,VALID,915.994,VALID,0,VALID,100,VALID,0.0679233,VALID,19.8803,VALID,139,VALID,0,
2009-02-18, 01:40:00,VALID,915.97,VALID,0,VALID,100,VALID,0.0849042,VALID,19.88,VALID,138,VALID,0,
2009-02-18, 01:41:00,VALID,915.947,VALID,0,VALID,100,VALID,0.0509425,VALID,19.8738,VALID,128,VALID,0,
2009-02-18, 01:42:00,VALID,915.926,VALID,0,VALID,100,VALID,0.0509425,VALID,19.8703,VALID,134,VALID,0,
2009-02-18, 01:43:00,VALID,915.912,VALID,0,VALID,100,VALID,0.0339617,VALID,19.8835,VALID,138,VALID,0,
2009-02-18, 01:44:00,VALID,915.886,VALID,0,VALID,100,VALID,0.0509425,VALID,19.8907,VALID,138,VALID,0,
2009-02-18, 01:45:00,VALID,915.865,VALID,0,VALID,100,VALID,0.0679233,VALID,19.887,VALID,138,VALID,0,
2009-02-18, 01:46:00,VALID,915.861,VALID,0,VALID,100,VALID,0.0169808,VALID,19.9065,VALID,138,VALID,0,
2009-02-18, 01:47:00,VALID,915.854,VALID,0,VALID,100,VALID,0.0679233,VALID,19.9127,VALID,138,VALID,0,
2009-02-18, 01:48:00,VALID,915.841,VALID,0,VALID,100,VALID,0.0849042,VALID,19.9189,VALID,138,VALID,0,
2009-02-18, 01:49:00,VALID,915.846,VALID,0,VALID,100,VALID,0.0509425,VALID,19.9224,VALID,138,VALID,0,
2009-02-18, 01:50:00,VALID,915.842,VALID,0,VALID,100,VALID,0.0339617,VALID,19.9159,VALID,138,VALID,0,
2009-02-18, 01:51:00,VALID,915.838,VALID,0,VALID,100,VALID,0.0339617,VALID,19.9262,VALID,138,VALID,0,
2009-02-18, 01:52:00,VALID,915.824,VALID,0,VALID,100,VALID,0.0679233,VALID,19.9392,VALID,138,VALID,0,
2009-02-18, 01:53:00,VALID,915.819,VALID,0,VALID,100,VALID,0,VALID,19.9304,VALID,138,VALID,0,
2009-02-18, 01:54:00,VALID,915.819,VALID,0,VALID,100,VALID,-0.0169808,VALID,19.9437,VALID,138,VALID,0,
2009-02-18, 01:55:00,VALID,915.81,VALID,0,VALID,100,VALID,-0.0339617,VALID,19.9237,VALID,138,VALID,0,
2009-02-18, 01:56:00,VALID,915.803,VALID,0,VALID,100,VALID,-0.0169808,VALID,19.9239,VALID,138,VALID,0,
2009-02-18, 01:57:00,VALID,915.776,VALID,0,VALID,100,VALID,-0.0169808,VALID,19.9145,VALID,146,VALID,0,
2009-02-18, 01:58:00,VALID,915.753,VALID,0,VALID,100,VALID,-0.0169808,VALID,19.908,VALID,153,VALID,0,
2009-02-18, 01:59:00,VALID,915.741,VALID,0,VALID,100,VALID,-0.0509425,VALID,19.905,VALID,153,VALID,0,
2009-02-18, 02:00:00,VALID,915.719,VALID,0,VALID,100,VALID,-0.0339617,VALID,19.8917,VALID,153,VALID,0,
2009-02-18, 02:01:00,VALID,915.706,VALID,0,VALID,100,VALID,0,VALID,19.8718,VALID,155,VALID,0,
2009-02-18, 02:02:00,VALID,915.687,VALID,0,VALID,100,VALID,-0.0169808,VALID,19.8653,VALID,164,VALID,0,
2009-02-18, 02:03:00,VALID,915.645,VALID,0,VALID,100,VALID,0,VALID,19.8423,VALID,164,VALID,0,
2009-02-18, 02:04:00,VALID,915.616,VALID,0,VALID,100,VALID,0,VALID,19.8164,VALID,163,VALID,0,
2009-02-18, 02:05:00,VALID,915.597,VALID,0,VALID,100,VALID,0,VALID,19.8131,VALID,163,VALID,0,
2009-02-18, 02:06:00,VALID,915.588,VALID,0,VALID,100,VALID,0,VALID,19.7971,VALID,155,VALID,0,
2009-02-18, 02:07:00,VALID,915.586,VALID,0,VALID,100,VALID,-0.0169808,VALID,19.7907,VALID,143,VALID,0,
2009-02-18, 02:08:00,VALID,915.582,VALID,0,VALID,100,VALID,-0.0169808,VALID,19.7749,VALID,131,VALID,0,
2009-02-18, 02:09:00,VALID,915.577,VALID,0,VALID,100,VALID,-0.0169808,VALID,19.7742,VALID,120,VALID,0,
2009-02-18, 02:10:00,VALID,915.551,VALID,0,VALID,100,VALID,0,VALID,19.7517,VALID,130,VALID,0,
2009-02-18, 02:11:00,VALID,915.519,VALID,0,VALID,100,VALID,0,VALID,19.7387,VALID,128,VALID,0,
2009-02-18, 02:12:00,VALID,915.488,VALID,0,VALID,100,VALID,0,VALID,19.7223,VALID,133,VALID,0,
2009-02-18, 02:13:00,VALID,915.473,VALID,0,VALID,100,VALID,0,VALID,19.7033,VALID,141,VALID,0,
2009-02-18, 02:14:00,VALID,915.461,VALID,0,VALID,100,VALID,0,VALID,19.6704,VALID,145,VALID,0,
2009-02-18, 02:15:00,VALID,915.458,VALID,0,VALID,100,VALID,-0.0169808,VALID,19.6606,VALID,129,VALID,0,
2009-02-18, 02:16:00,VALID,915.474,VALID,0,VALID,100,VALID,0,VALID,19.6444,VALID,129,VALID,0,
2009-02-18, 02:17:00,VALID,915.46,VALID,0,VALID,100,VALID,-0.0339617,VALID,19.6379,VALID,124,VALID,0,
2009-02-18, 02:18:00,VALID,915.453,VALID,0,VALID,100,VALID,0,VALID,19.6052,VALID,102,VALID,0,
2009-02-18, 02:19:00,VALID,915.438,VALID,0,VALID,100,VALID,0,VALID,19.5867,VALID,100,VALID,0,
2009-02-18, 02:20:00,VALID,915.417,VALID,0,VALID,100,VALID,-0.0169808,VALID,19.5411,VALID,100,VALID,0,
2009-02-18, 02:21:00,VALID,915.376,VALID,0,VALID,100,VALID,0,VALID,19.5313,VALID,100,VALID,0,
2009-02-18, 02:22:00,VALID,915.343,VALID,0,VALID,100,VALID,0,VALID,19.5283,VALID,100,VALID,0,
2009-02-18, 02:23:00,VALID,915.306,VALID,0,VALID,100,VALID,-0.0169808,VALID,19.4991,VALID,108,VALID,0,
2009-02-18, 02:24:00,VALID,915.293,VALID,0,VALID,100,VALID,-0.0169808,VALID,19.4692,VALID,112,VALID,0,
2009-02-18, 02:25:00,VALID,915.273,VALID,0,VALID,100,VALID,0,VALID,19.4532,VALID,110,VALID,0,
2009-02-18, 02:26:00,VALID,915.278,VALID,0,VALID,100,VALID,-0.0339617,VALID,19.424,VALID,112,VALID,0,
2009-02-18, 02:27:00,VALID,915.284,VALID,0,VALID,100,VALID,-0.0339617,VALID,19.415,VALID,114,VALID,0,
2009-02-18, 02:28:00,VALID,915.287,VALID,0,VALID,100,VALID,-0.0339617,VALID,19.4088,VALID,113,VALID,0,
2009-02-18, 02:29:00,VALID,915.292,VALID,0,VALID,100,VALID,-0.0169808,VALID,19.4113,VALID,113,VALID,0,
2009-02-18, 02:30:00,VALID,915.291,VALID,0,VALID,100,VALID,0,VALID,19.4173,VALID,113,VALID,0,
2009-02-18, 02:31:00,VALID,915.294,VALID,0,VALID,100,VALID,-0.0339617,VALID,19.418,VALID,114,VALID,0,
2009-02-18, 02:32:00,VALID,915.299,VALID,0,VALID,100,VALID,-0.0339617,VALID,19.414,VALID,114,VALID,0,
2009-02-18, 02:33:00,VALID,915.29,VALID,0,VALID,100,VALID,-0.0339617,VALID,19.4213,VALID,115,VALID,0,
2009-02-18, 02:34:00,VALID,915.283,VALID,0,VALID,100,VALID,-0.0509425,VALID,19.4013,VALID,120,VALID,0,
2009-02-18, 02:35:00,VALID,915.256,VALID,0,VALID,100,VALID,0,VALID,19.4342,VALID,124,VALID,0,
2009-02-18, 02:36:00,VALID,915.244,VALID,0,VALID,100,VALID,-0.0679233,VALID,19.4632,VALID,127,VALID,0,
2009-02-18, 02:37:00,VALID,915.226,VALID,0,VALID,100,VALID,-0.0509425,VALID,19.4926,VALID,128,VALID,0,
2009-02-18, 02:38:00,VALID,915.209,VALID,0,VALID,100,VALID,-0.0339617,VALID,19.5024,VALID,136,VALID,0,
2009-02-18, 02:39:00,VALID,915.174,VALID,0,VALID,100,VALID,-0.0339617,VALID,19.5151,VALID,139,VALID,0,
2009-02-18, 02:40:00,VALID,915.149,VALID,0,VALID,100,VALID,-0.0339617,VALID,19.5381,VALID,168,VALID,0,
2009-02-18, 02:41:00,VALID,915.117,VALID,0,VALID,100,VALID,-0.0509425,VALID,19.567,VALID,171,VALID,0,
2009-02-18, 02:42:00,VALID,915.098,VALID,0,VALID,100,VALID,-0.0339617,VALID,19.6094,VALID,175,VALID,0,
2009-02-18, 02:43:00,VALID,915.089,VALID,0,VALID,100,VALID,-0.0679233,VALID,19.6287,VALID,176,VALID,0,
2009-02-18, 02:44:00,VALID,915.098,VALID,0,VALID,100,VALID,-0.0679233,VALID,19.6551,VALID,176,VALID,0,
2009-02-18, 02:45:00,VALID,915.108,VALID,0,VALID,100,VALID,-0.0509425,VALID,19.6871,VALID,166,VALID,0,
2009-02-18, 02:46:00,VALID,915.118,VALID,0,VALID,100,VALID,-0.0509425,VALID,19.71,VALID,156,VALID,0,
2009-02-18, 02:47:00,VALID,915.106,VALID,0,VALID,100,VALID,-0.0509425,VALID,19.7033,VALID,147,VALID,0,
2009-02-18, 02:48:00,VALID,915.083,VALID,0,VALID,100,VALID,-0.0169808,VALID,19.6803,VALID,137,VALID,0,
2009-02-18, 02:49:00,VALID,915.068,VALID,0,VALID,100,VALID,-0.0849042,VALID,19.6484,VALID,140,VALID,0,
2009-02-18, 02:50:00,VALID,915.045,VALID,0,VALID,100,VALID,-0.0849042,VALID,19.6055,VALID,153,VALID,0,
2009-02-18, 02:51:00,VALID,915.024,VALID,0,VALID,100,VALID,-0.0679233,VALID,19.6127,VALID,150,VALID,0,
2009-02-18, 02:52:00,VALID,915.018,VALID,0,VALID,100,VALID,-0.0339617,VALID,19.5895,VALID,155,VALID,0,
2009-02-18, 02:53:00,VALID,915.013,VALID,0,VALID,100,VALID,-0.0849042,VALID,19.5773,VALID,157,VALID,0,
2009-02-18, 02:54:00,VALID,915.018,VALID,0,VALID,100,VALID,-0.101885,VALID,19.5935,VALID,159,VALID,0,
2009-02-18, 02:55:00,VALID,915.02,VALID,0,VALID,100,VALID,-0.0849042,VALID,19.5935,VALID,150,VALID,0,
2009-02-18, 02:56:00,VALID,915.013,VALID,0,VALID,100,VALID,-0.0849042,VALID,19.5835,VALID,150,VALID,0,
2009-02-18, 02:57:00,VALID,914.999,VALID,0,VALID,100,VALID,-0.0679233,VALID,19.5897,VALID,157,VALID,0,
2009-02-18, 02:58:00,VALID,914.984,VALID,0,VALID,100,VALID,-0.0849042,VALID,19.6,VALID,157,VALID,0,
2009-02-18, 02:59:00,VALID,914.961,VALID,0,VALID,100,VALID,-0.101885,VALID,19.6094,VALID,157,VALID,0,
2009-02-18, 03:00:00,VALID,914.944,VALID,0,VALID,100,VALID,-0.118866,VALID,19.606,VALID,157,VALID,0,
2009-02-18, 03:01:00,VALID,914.941,VALID,0,VALID,100,VALID,-0.0849042,VALID,19.6092,VALID,157,VALID,0,
2009-02-18, 03:02:00,VALID,914.938,VALID,0,VALID,100,VALID,-0.0849042,VALID,19.6384,VALID,157,VALID,0,
2009-02-18, 03:03:00,VALID,914.935,VALID,0,VALID,100,VALID,-0.101885,VALID,19.6324,VALID,156,VALID,0,
2009-02-18, 03:04:00,VALID,914.937,VALID,0,VALID,100,VALID,-0.0849042,VALID,19.6357,VALID,152,VALID,0,
2009-02-18, 03:05:00,VALID,914.934,VALID,0,VALID,100,VALID,-0.0849042,VALID,19.6127,VALID,151,VALID,0,
2009-02-18, 03:06:00,VALID,914.912,VALID,0,VALID,100,VALID,-0.0339617,VALID,19.583,VALID,146,VALID,0,
2009-02-18, 03:07:00,VALID,914.895,VALID,0,VALID,100,VALID,-0.0339617,VALID,19.5503,VALID,159,VALID,0,
2009-02-18, 03:08:00,VALID,914.877,VALID,0,VALID,100,VALID,-0.0169808,VALID,19.5368,VALID,160,VALID,0,
2009-02-18, 03:09:00,VALID,914.87,VALID,0,VALID,100,VALID,0.0509425,VALID,19.5134,VALID,170,VALID,0,
2009-02-18, 03:10:00,VALID,914.864,VALID,0,VALID,100,VALID,0.0169808,VALID,19.5204,VALID,160,VALID,0,
2009-02-18, 03:11:00,VALID,914.844,VALID,0,VALID,100,VALID,0.0339617,VALID,19.5296,VALID,178,VALID,0,
2009-02-18, 03:12:00,VALID,914.832,VALID,0,VALID,100,VALID,0.0169808,VALID,19.576,VALID,168,VALID,0,
2009-02-18, 03:13:00,VALID,914.827,VALID,0,VALID,100,VALID,0.0169808,VALID,19.5688,VALID,132,VALID,0,
2009-02-18, 03:14:00,VALID,914.825,VALID,0,VALID,100,VALID,0.0169808,VALID,19.5526,VALID,126,VALID,0,
2009-02-18, 03:15:00,VALID,914.828,VALID,0,VALID,100,VALID,0,VALID,19.566,VALID,134,VALID,0,
2009-02-18, 03:16:00,VALID,914.817,VALID,0,VALID,100,VALID,0.0339617,VALID,19.5488,VALID,128,VALID,0,
2009-02-18, 03:17:00,VALID,914.819,VALID,0,VALID,100,VALID,0.0169808,VALID,19.5498,VALID,121,VALID,0,
2009-02-18, 03:18:00,VALID,914.803,VALID,0,VALID,100,VALID,0.0169808,VALID,19.5299,VALID,119,VALID,0,
2009-02-18, 03:19:00,VALID,914.79,VALID,0,VALID,100,VALID,0.0509425,VALID,19.4942,VALID,124,VALID,0,
2009-02-18, 03:20:00,VALID,914.76,VALID,0,VALID,100,VALID,0.0169808,VALID,19.4747,VALID,135,VALID,0.00228659,
2009-02-18, 03:21:00,VALID,914.723,VALID,0,VALID,100,VALID,0.0339617,VALID,19.4784,VALID,143,VALID,0.111861,
2009-02-18, 03:22:00,VALID,914.686,VALID,0,VALID,100,VALID,0.101885,VALID,19.4645,VALID,149,VALID,0,
2009-02-18, 03:23:00,VALID,914.67,VALID,0,VALID,100,VALID,-0.0169808,VALID,19.4887,VALID,158,VALID,0,
2009-02-18, 03:24:00,VALID,914.67,VALID,0,VALID,100,VALID,0,VALID,19.4984,VALID,142,VALID,0,
2009-02-18, 03:25:00,VALID,914.667,VALID,0,VALID,100,VALID,-0.0169808,VALID,19.4954,VALID,131,VALID,0,
2009-02-18, 03:26:00,VALID,914.668,VALID,0,VALID,100,VALID,0,VALID,19.4792,VALID,147,VALID,0,
2009-02-18, 03:27:00,VALID,914.677,VALID,0,VALID,100,VALID,0,VALID,19.5019,VALID,153,VALID,0.118963,
2009-02-18, 03:28:00,VALID,914.683,VALID,0,VALID,100,VALID,0.0169808,VALID,19.5081,VALID,147,VALID,0.00109012,
2009-02-18, 03:29:00,VALID,914.67,VALID,0,VALID,100,VALID,-0.0339617,VALID,19.5181,VALID,158,VALID,0.0838068,
2009-02-18, 03:30:00,VALID,914.65,VALID,0,VALID,100,VALID,-0.0509425,VALID,19.5086,VALID,149,VALID,0.258721,
2009-02-18, 03:31:00,VALID,914.651,VALID,0,VALID,100,VALID,-0.0169808,VALID,19.4989,VALID,163,VALID,0.296113,
2009-02-18, 03:32:00,VALID,914.645,VALID,0,VALID,100,VALID,-0.0509425,VALID,19.4989,VALID,169,VALID,0,
2009-02-18, 03:33:00,VALID,914.651,VALID,0,VALID,100,VALID,-0.0339617,VALID,19.4956,VALID,171,VALID,0,
2009-02-18, 03:34:00,VALID,914.664,VALID,0,VALID,100,VALID,-0.0169808,VALID,19.4792,VALID,174,VALID,0,
2009-02-18, 03:35:00,VALID,914.69,VALID,0,VALID,100,VALID,-0.0509425,VALID,19.4824,VALID,167,VALID,0,
2009-02-18, 03:36:00,VALID,914.708,VALID,0,VALID,100,VALID,-0.0339617,VALID,19.4597,VALID,138,VALID,0,
2009-02-18, 03:37:00,VALID,914.712,VALID,0,VALID,100,VALID,-0.0509425,VALID,19.4143,VALID,134,VALID,0,
2009-02-18, 03:38:00,VALID,914.694,VALID,0,VALID,100,VALID,-0.0339617,VALID,19.3881,VALID,134,VALID,0,
2009-02-18, 03:39:00,VALID,914.675,VALID,0,VALID,100,VALID,-0.0339617,VALID,19.3754,VALID,134,VALID,0,
2009-02-18, 03:40:00,VALID,914.647,VALID,0,VALID,100,VALID,-0.0339617,VALID,19.3691,VALID,134,VALID,0,
2009-02-18, 03:41:00,VALID,914.626,VALID,0,VALID,100,VALID,-0.0339617,VALID,19.3631,VALID,134,VALID,0,
2009-02-18, 03:42:00,VALID,914.617,VALID,0,VALID,100,VALID,-0.0339617,VALID,19.3329,VALID,134,VALID,0,
2009-02-18, 03:43:00,VALID,914.601,VALID,0,VALID,100,VALID,-0.0679233,VALID,19.3402,VALID,134,VALID,0,
2009-02-18, 03:44:00,VALID,914.595,VALID,0,VALID,100,VALID,-0.0339617,VALID,19.3399,VALID,134,VALID,0,
2009-02-18, 03:45:00,VALID,914.6,VALID,0,VALID,100,VALID,-0.0509425,VALID,19.3429,VALID,134,VALID,0,
2009-02-18, 03:46:00,VALID,914.607,VALID,0,VALID,100,VALID,-0.0679233,VALID,19.3364,VALID,134,VALID,0,
2009-02-18, 03:47:00,VALID,914.607,VALID,0,VALID,100,VALID,-0.0679233,VALID,19.2912,VALID,134,VALID,0,
2009-02-18, 03:48:00,VALID,914.602,VALID,0,VALID,100,VALID,-0.0169808,VALID,19.2164,VALID,134,VALID,0,
2009-02-18, 03:49:00,VALID,914.592,VALID,0,VALID,100,VALID,-0.0849042,VALID,19.171,VALID,134,VALID,0,